Вернуться в каталог

COSMOS 2251 DEB

АктивенLEO
NORAD 34721·DEBRIS·🇷🇺 Russia

Запущен Jun 16, 1993 с Plesetsk Cosmodrome

Loading…

Ближайшие Пролёты (ближайшие 24 часа)

TLE

СвежийSource: Space-Track

Эпоха: Sep 14, 2026, 13:31 UTC

1 34721U 93036YP  26257.56364791  .00001395  00000-0  82484-3 0  9998
2 34721  73.9213 207.3229 0213757  91.2538  26.8306 13.97811703890026

Отслеживайте COSMOS 2251 DEB в реальном времени с AllMySat

Download on the App Store